Location: Newark
(57.7279°N, 5.6916°W)
Time: 04:33:25
(UTC+00:00)

N. Korean satellite - Pass Details

Date: 14 December 2019
Orbit: 454 x 507 km, 97.2° (Epoch: 24 January)

Event Time Altitude Azimuth Distance (km) Brightness Sun altitude
Rises 18:40:38 0° 218° (SW) 2,599 10.9 -22.5°
Reaches altitude 10° 18:43:50 10° 249° (WSW) 1,713 10.4 -22.9°
Maximum altitude 18:45:26 12° 275° (W) 1,565 10.1 -23.2°
Drops below altitude 10° 18:47:02 10° 301° (WNW) 1,709 10.0 -23.4°
Sets 18:50:14 0° 332° (NNW) 2,586 10.5 -23.8°
